User: anonymous   Login
Location: ????????
(42.0488°N, 44.0407°E)
Time: 12:06:41
(UTC+00:00)
Language:

Cosmos 1766 Rocket - Orbit

View from above orbital plane
View from above orbital plane
View from above satellite
View from above satellite

Ground track
Ground track

The orbit data is extracted from the following two-line orbital elements,

1 16882U 86055B   20227.14763497  .00000070  00000-0  56777-5 0  9997
2 16882  82.5190 233.1666 0019285 199.3724 228.6310 14.83231964838933
Epoch (UTC): 14 August 2020 03:32:35
Eccentricity: 0.0019285
inclination: 82.5190°
perigee height: 605 km
apogee height: 632 km
right ascension of ascending node: 233.1666°
argument of perigee: 199.3724°
revolutions per day: 14.83231964
mean anomaly at epoch: 228.6310°
orbit number at epoch: 83893

The dashed part of the orbit path shows where the satellite is in the earth's shadow,  

DLR